• En España
  • Lista de países
  • Para 7 días
  • Temperatura del agua
  • Mapa Satelital
  • El tiempo en el mapa
  • Informadores
  • user-avatar
    Iniciar sesión

    Tiempo cada hora Newcastle

    Hoy, 23 Mayo, Miércoles

    Tiempo Temperatura Precipitaciones Viento Presión Humedad
    00:00 +12°C° 0,1 mm 4 mps 765 mmHg 83%
    01:00 +12°C° 0,1 mm 4 mps 766 mmHg 84%
    02:00 +11°C° 0,1 mm 4 mps 766 mmHg 85%
    03:00 +11°C° 0,1 mm 4 mps 766 mmHg 87%
    04:00 +11°C° 0,1 mm 4 mps 766 mmHg 88%
    05:00 +11°C° 0 mm 4 mps 767 mmHg 89%
    06:00 +11°C° 0 mm 4 mps 767 mmHg 90%
    07:00 +10°C° 0 mm 4 mps 767 mmHg 91%
    08:00 +13°C° 0 mm 4 mps 768 mmHg 82%
    09:00 +15°C° 0 mm 4 mps 768 mmHg 72%
    10:00 +19°C° 0 mm 4 mps 768 mmHg 62%
    11:00 +20°C° 0 mm 3 mps 768 mmHg 57%
    12:00 +20°C° 0 mm 3 mps 767 mmHg 53%
    13:00 +21°C° 0 mm 3 mps 767 mmHg 49%
    14:00 +21°C° 0 mm 3 mps 767 mmHg 52%
    15:00 +20°C° 0 mm 2 mps 767 mmHg 55%
    16:00 +19°C° 0 mm 2 mps 767 mmHg 59%
    17:00 +18°C° 0 mm 1 mps 767 mmHg 68%
    18:00 +15°C° 0 mm 1 mps 767 mmHg 77%
    19:00 +13°C° 0 mm 1 mps 767 mmHg 86%
    20:00 +13°C° 0 mm 1 mps 767 mmHg 89%
    21:00 +13°C° 0 mm 2 mps 767 mmHg 91%
    22:00 +12°C° 0 mm 2 mps 767 mmHg 93%
    23:00 +12°C° 0 mm 2 mps 767 mmHg 93%

    Mañana, 24 Mayo, Jueves

    Tiempo Temperatura Precipitaciones Viento Presión Humedad
    00:00 +12°C° 0 mm 2 mps 767 mmHg 92%
    01:00 +10°C° 0 mm 2 mps 767 mmHg 92%
    02:00 +10°C° 0 mm 2 mps 767 mmHg 90%
    03:00 +10°C° 0 mm 2 mps 766 mmHg 88%
    04:00 +10°C° 0 mm 2 mps 766 mmHg 87%
    05:00 +10°C° 0 mm 2 mps 767 mmHg 86%
    06:00 +9°C° 0 mm 2 mps 767 mmHg 84%
    07:00 +9°C° 0 mm 2 mps 767 mmHg 83%
    08:00 +13°C° 0 mm 2 mps 767 mmHg 72%
    09:00 +16°C° 0 mm 2 mps 767 mmHg 61%
    10:00 +19°C° 0 mm 2 mps 767 mmHg 50%
    11:00 +20°C° 0 mm 2 mps 767 mmHg 48%
    12:00 +21°C° 0 mm 2 mps 766 mmHg 46%
    13:00 +23°C° 0 mm 2 mps 766 mmHg 44%
    14:00 +21°C° 0 mm 2 mps 766 mmHg 49%
    15:00 +20°C° 0 mm 2 mps 766 mmHg 55%
    16:00 +20°C° 0 mm 2 mps 766 mmHg 60%
    17:00 +18°C° 0 mm 2 mps 766 mmHg 70%
    18:00 +16°C° 0 mm 2 mps 767 mmHg 80%
    19:00 +14°C° 0 mm 2 mps 767 mmHg 91%
    20:00 +13°C° 0 mm 3 mps 768 mmHg 91%
    21:00 +13°C° 0 mm 3 mps 768 mmHg 91%
    22:00 +13°C° 0 mm 3 mps 769 mmHg 92%
    23:00 +14°C° 0,1 mm 3 mps 769 mmHg 91%

    Pasado mañana, 25 Mayo, Viernes

    Tiempo Temperatura Precipitaciones Viento Presión Humedad
    00:00 +14°C° 0,1 mm 3 mps 769 mmHg 91%
    01:00 +14°C° 0,1 mm 3 mps 769 mmHg 90%
    02:00 +14°C° 0,1 mm 3 mps 769 mmHg 91%
    03:00 +14°C° 0,1 mm 3 mps 769 mmHg 91%
    04:00 +14°C° 0,1 mm 3 mps 769 mmHg 92%
    05:00 +14°C° 0,1 mm 3 mps 769 mmHg 92%
    06:00 +13°C° 0,1 mm 3 mps 770 mmHg 92%
    07:00 +13°C° 0,1 mm 3 mps 770 mmHg 93%
    08:00 +15°C° 0 mm 4 mps 770 mmHg 86%
    09:00 +17°C° 0 mm 4 mps 770 mmHg 79%
    10:00 +19°C° 0 mm 4 mps 771 mmHg 73%
    11:00 +19°C° 0,1 mm 4 mps 770 mmHg 70%
    12:00 +19°C° 0,1 mm 4 mps 770 mmHg 67%
    13:00 +19°C° 0,1 mm 3 mps 769 mmHg 65%
    14:00 +19°C° 0 mm 3 mps 770 mmHg 64%
    15:00 +19°C° 0 mm 3 mps 770 mmHg 64%
    16:00 +19°C° 0 mm 3 mps 770 mmHg 64%
    17:00 +17°C° 0,1 mm 3 mps 770 mmHg 72%
    18:00 +14°C° 0,1 mm 3 mps 771 mmHg 81%
    19:00 +14°C° 0,1 mm 2 mps 771 mmHg 90%
    20:00 +14°C° 0,1 mm 2 mps 771 mmHg 91%
    21:00 +14°C° 0,1 mm 2 mps 772 mmHg 92%
    22:00 +14°C° 0,1 mm 2 mps 772 mmHg 93%
    23:00 +14°C° 0,1 mm 2 mps 772 mmHg 93%

    26 Mayo, Sábado

    Tiempo Temperatura Precipitaciones Viento Presión Humedad
    00:00 +14°C° 0,1 mm 2 mps 772 mmHg 93%
    01:00 +14°C° 0,1 mm 2 mps 771 mmHg 92%
    02:00 +14°C° 0,1 mm 2 mps 771 mmHg 93%
    03:00 +14°C° 0,1 mm 1 mps 771 mmHg 94%
    04:00 +13°C° 0,1 mm 1 mps 771 mmHg 94%
    05:00 +13°C° 0 mm 1 mps 771 mmHg 95%
    06:00 +13°C° 0 mm 1 mps 772 mmHg 95%
    07:00 +13°C° 0 mm 1 mps 772 mmHg 96%
    08:00 +15°C° 0 mm 1 mps 772 mmHg 89%
    09:00 +18°C° 0 mm 1 mps 772 mmHg 82%
    10:00 +19°C° 0 mm 1 mps 772 mmHg 75%
    11:00 +19°C° 0 mm 2 mps 772 mmHg 69%
    12:00 +20°C° 0 mm 2 mps 771 mmHg 63%
    13:00 +21°C° 0 mm 2 mps 770 mmHg 56%
    14:00 +20°C° 0 mm 3 mps 770 mmHg 59%
    15:00 +20°C° 0 mm 3 mps 770 mmHg 62%
    16:00 +19°C° 0 mm 3 mps 769 mmHg 64%
    17:00 +18°C° 0 mm 3 mps 770 mmHg 72%
    18:00 +16°C° 0 mm 3 mps 770 mmHg 79%
    19:00 +13°C° 0 mm 3 mps 771 mmHg 86%
    20:00 +13°C° 0 mm 3 mps 771 mmHg 88%
    21:00 +12°C° 0 mm 3 mps 771 mmHg 90%
    22:00 +12°C° 0 mm 3 mps 771 mmHg 91%
    23:00 +11°C° 0 mm 3 mps 771 mmHg 92%

    27 Mayo, Domingo

    Tiempo Temperatura Precipitaciones Viento Presión Humedad
    00:00 +11°C° 0 mm 3 mps 770 mmHg 93%
    01:00 +11°C° 0 mm 3 mps 770 mmHg 94%
    02:00 +10°C° 0 mm 3 mps 770 mmHg 95%
    03:00 +10°C° 0 mm 3 mps 770 mmHg 96%
    04:00 +10°C° 0 mm 3 mps 769 mmHg 96%
    05:00 +9°C° 0 mm 2 mps 770 mmHg 96%
    06:00 +9°C° 0 mm 2 mps 770 mmHg 97%
    07:00 +9°C° 0 mm 2 mps 770 mmHg 97%
    08:00 +13°C° 0 mm 2 mps 770 mmHg 85%
    09:00 +15°C° 0 mm 2 mps 770 mmHg 73%
    10:00 +18°C° 0 mm 2 mps 770 mmHg 61%
    11:00 +20°C° 0 mm 2 mps 769 mmHg 55%
    12:00 +21°C° 0 mm 2 mps 768 mmHg 50%
    13:00 +23°C° 0 mm 2 mps 767 mmHg 44%
    14:00 +21°C° 0 mm 2 mps 767 mmHg 49%
    15:00 +20°C° 0 mm 2 mps 767 mmHg 53%
    16:00 +20°C° 0 mm 2 mps 767 mmHg 58%
    17:00 +18°C° 0 mm 3 mps 767 mmHg 63%
    18:00 +17°C° 0 mm 3 mps 768 mmHg 68%
    19:00 +14°C° 0 mm 3 mps 768 mmHg 73%
    20:00 +14°C° 0 mm 3 mps 768 mmHg 76%
    21:00 +14°C° 0 mm 3 mps 768 mmHg 79%
    22:00 +13°C° 0 mm 3 mps 768 mmHg 81%
    23:00 +13°C° 0 mm 3 mps 768 mmHg 83%

    28 Mayo, Lunes

    Tiempo Temperatura Precipitaciones Viento Presión Humedad
    00:00 +13°C° 0 mm 3 mps 767 mmHg 84%
    01:00 +12°C° 0 mm 3 mps 767 mmHg 86%
    02:00 +13°C° 0 mm 2 mps 767 mmHg 84%
    03:00 +12°C° 0 mm 2 mps 767 mmHg 83%
    04:00 +12°C° 0 mm 2 mps 767 mmHg 82%
    05:00 +12°C° 0 mm 2 mps 767 mmHg 81%
    06:00 +12°C° 0 mm 2 mps 767 mmHg 79%
    07:00 +10°C° 0 mm 2 mps 767 mmHg 78%
    08:00 +14°C° 0 mm 2 mps 767 mmHg 69%
    09:00 +16°C° 0 mm 2 mps 767 mmHg 60%
    10:00 +19°C° 0 mm 2 mps 767 mmHg 52%
    11:00 +21°C° 0 mm 2 mps 766 mmHg 47%
    12:00 +23°C° 0 mm 2 mps 766 mmHg 42%
    13:00 +25°C° 0 mm 2 mps 765 mmHg 37%
    14:00 +24°C° 0 mm 2 mps 765 mmHg 41%
    15:00 +23°C° 0 mm 2 mps 765 mmHg 46%
    16:00 +21°C° 0 mm 2 mps 765 mmHg 50%
    17:00 +19°C° 0 mm 2 mps 765 mmHg 56%
    18:00 +17°C° 0 mm 3 mps 765 mmHg 62%
    19:00 +14°C° 0 mm 3 mps 765 mmHg 69%
    20:00 +14°C° 0 mm 3 mps 765 mmHg 71%
    21:00 +13°C° 0 mm 3 mps 765 mmHg 72%
    22:00 +13°C° 0 mm 3 mps 765 mmHg 74%
    23:00 +12°C° 0 mm 3 mps 765 mmHg 72%
    Mostrar más